Terug naar catalogus

STARLINK-3582

ActiefCommunicatieVLEO
NORAD 51873·PAYLOAD·🇺🇸 United States

Gelanceerd Mar 3, 2022 vanaf Cape Canaveral Space Force Station

Loading…

Volgende Passages (komende 24 uur)

TLE

VersSource: CelesTrak SupGP

Epoch: Sep 15, 2026, 02:20 UTC

1 51873C 22022X   26258.09770833  .00009920  00000+0  37068-3 0  2586
2 51873  53.1989 217.1165 0006611  89.9699 117.5651 15.26797813    14

Volg STARLINK-3582 in realtime met AllMySat

Download on the App Store